TimeMST,TemperatureF,Dew PointF,Humidity,Sea Level PressureIn,VisibilityMPH,Wind Direction,Wind SpeedMPH,Gust SpeedMPH,PrecipitationIn,Events,Conditions,WindDirDegrees,DateUTC
12:15 AM,48.2,26.4,43,29.99,10.0,West,11.5,-,N/A,,Clear,260,2014-01-27 07:15:00
12:35 AM,46.9,26.1,44,29.99,10.0,West,8.1,-,N/A,,Clear,280,2014-01-27 07:35:00
12:55 AM,45.7,25.3,45,29.99,10.0,NW,5.8,-,N/A,,Clear,320,2014-01-27 07:55:00
1:15 AM,46.6,25.5,44,29.99,10.0,NNW,6.9,-,N/A,,Clear,330,2014-01-27 08:15:00
1:35 AM,45.3,25.5,46,29.98,10.0,NW,4.6,-,N/A,,Clear,320,2014-01-27 08:35:00
1:55 AM,46.6,25.9,44,29.98,10.0,WNW,4.6,-,N/A,,Clear,300,2014-01-27 08:55:00
2:15 AM,43.5,25.0,48,29.99,10.0,WNW,4.6,-,N/A,,Clear,290,2014-01-27 09:15:00
2:35 AM,41.7,24.6,51,29.99,10.0,WNW,3.5,-,N/A,,Clear,300,2014-01-27 09:35:00
2:55 AM,43.0,25.0,49,29.99,10.0,West,8.1,-,N/A,,Clear,280,2014-01-27 09:55:00
3:15 AM,43.5,25.0,48,29.99,10.0,West,6.9,-,N/A,,Clear,280,2014-01-27 10:15:00
3:35 AM,42.1,24.8,50,29.99,10.0,NW,5.8,-,N/A,,Clear,310,2014-01-27 10:35:00
3:55 AM,41.9,24.8,51,29.99,10.0,NNW,6.9,-,N/A,,Clear,330,2014-01-27 10:55:00
4:15 AM,42.8,24.8,49,29.99,10.0,NNW,4.6,-,N/A,,Clear,330,2014-01-27 11:15:00
4:35 AM,43.7,24.4,47,30.00,10.0,WNW,3.5,-,N/A,,Clear,300,2014-01-27 11:35:00
4:55 AM,43.2,24.3,47,30.00,10.0,NW,4.6,-,N/A,,Clear,310,2014-01-27 11:55:00
5:15 AM,41.7,23.4,48,30.01,10.0,NW,6.9,-,N/A,,Clear,320,2014-01-27 12:15:00
5:35 AM,41.2,22.1,47,30.01,10.0,NNW,5.8,-,N/A,,Clear,340,2014-01-27 12:35:00
5:55 AM,44.6,18.1,35,30.01,10.0,NE,6.9,-,N/A,,Scattered Clouds,40,2014-01-27 12:55:00
6:15 AM,43.9,22.6,43,30.02,10.0,East,5.8,-,N/A,,Clear,80,2014-01-27 13:15:00
6:35 AM,41.0,22.8,48,30.03,10.0,Calm,Calm,-,N/A,,Mostly Cloudy,0,2014-01-27 13:35:00
6:55 AM,40.6,22.8,49,30.05,10.0,SSW,4.6,-,N/A,,Mostly Cloudy,200,2014-01-27 13:55:00
7:15 AM,40.1,22.8,50,30.05,10.0,WSW,3.5,-,N/A,,Mostly Cloudy,250,2014-01-27 14:15:00
7:35 AM,40.6,23.0,49,30.06,10.0,WSW,3.5,-,N/A,,Scattered Clouds,250,2014-01-27 14:35:00
7:55 AM,41.0,23.0,49,30.07,10.0,Calm,Calm,-,N/A,,Mostly Cloudy,0,2014-01-27 14:55:00
8:15 AM,42.4,22.6,46,30.08,10.0,East,5.8,-,N/A,,Overcast,80,2014-01-27 15:15:00
8:35 AM,42.6,23.0,46,30.10,10.0,Calm,Calm,-,N/A,,Overcast,0,2014-01-27 15:35:00
8:55 AM,45.0,20.1,37,30.11,10.0,SSE,6.9,-,N/A,,Scattered Clouds,160,2014-01-27 15:55:00
9:15 AM,45.1,16.9,32,30.11,10.0,SE,3.5,-,N/A,,Scattered Clouds,130,2014-01-27 16:15:00
9:35 AM,46.4,15.8,29,30.11,10.0,ESE,5.8,-,N/A,,Mostly Cloudy,120,2014-01-27 16:35:00
9:55 AM,47.7,15.8,28,30.12,10.0,ESE,6.9,-,N/A,,Mostly Cloudy,110,2014-01-27 16:55:00
10:15 AM,49.5,18.1,29,30.12,10.0,SE,9.2,-,N/A,,Scattered Clouds,130,2014-01-27 17:15:00
10:35 AM,50.5,22.1,33,30.12,10.0,SE,13.8,-,N/A,,Clear,140,2014-01-27 17:35:00
10:55 AM,50.7,21.9,32,30.11,10.0,SE,13.8,-,N/A,,Mostly Cloudy,140,2014-01-27 17:55:00
11:15 AM,49.5,21.7,34,30.11,10.0,SE,10.4,-,N/A,,Overcast,140,2014-01-27 18:15:00
11:35 AM,49.8,21.7,33,30.09,10.0,SE,13.8,-,N/A,,Overcast,130,2014-01-27 18:35:00
11:55 AM,50.0,21.2,32,30.08,10.0,SSE,15.0,-,N/A,,Overcast,150,2014-01-27 18:55:00
12:15 PM,51.3,21.2,31,30.07,10.0,SSE,15.0,20.7,N/A,,Overcast,160,2014-01-27 19:15:00
12:35 PM,52.9,21.2,29,30.05,10.0,SE,11.5,-,N/A,,Scattered Clouds,140,2014-01-27 19:35:00
12:55 PM,54.0,21.7,29,30.04,10.0,SE,15.0,18.4,N/A,,Clear,140,2014-01-27 19:55:00
1:15 PM,55.0,22.6,28,30.02,10.0,South,15.0,19.6,N/A,,Clear,180,2014-01-27 20:15:00
1:35 PM,55.2,21.9,27,30.01,10.0,SSE,16.1,20.7,N/A,,Clear,160,2014-01-27 20:35:00
1:55 PM,54.1,21.6,28,30.01,10.0,South,10.4,18.4,N/A,,Mostly Cloudy,180,2014-01-27 20:55:00
2:15 PM,54.7,21.4,27,30.00,10.0,South,11.5,17.3,N/A,,Overcast,180,2014-01-27 21:15:00
2:35 PM,55.2,21.4,27,29.99,10.0,South,11.5,-,N/A,,Mostly Cloudy,170,2014-01-27 21:35:00
2:55 PM,55.6,21.4,26,29.99,10.0,SSE,11.5,16.1,N/A,,Scattered Clouds,160,2014-01-27 21:55:00
3:15 PM,56.3,21.6,26,29.99,10.0,SSE,12.7,16.1,N/A,,Clear,160,2014-01-27 22:15:00
3:35 PM,56.3,21.7,26,29.98,10.0,SE,10.4,-,N/A,,Scattered Clouds,140,2014-01-27 22:35:00
3:55 PM,56.1,21.6,26,29.98,10.0,SE,10.4,-,N/A,,Mostly Cloudy,140,2014-01-27 22:55:00
4:15 PM,55.9,21.6,26,29.97,10.0,SSE,8.1,-,N/A,,Scattered Clouds,150,2014-01-27 23:15:00
4:35 PM,56.5,21.9,26,29.96,10.0,SSE,11.5,-,N/A,,Clear,150,2014-01-27 23:35:00
4:55 PM,56.1,22.1,27,29.97,10.0,ESE,6.9,-,N/A,,Clear,120,2014-01-27 23:55:00
5:15 PM,52.3,21.6,30,29.98,10.0,East,6.9,-,N/A,,Scattered Clouds,100,2014-01-28 00:15:00
5:35 PM,52.5,21.4,30,29.98,10.0,SSE,4.6,-,N/A,,Overcast,160,2014-01-28 00:35:00
5:55 PM,52.3,21.6,30,29.99,10.0,ESE,5.8,-,N/A,,Overcast,110,2014-01-28 00:55:00
6:15 PM,51.3,21.6,31,29.99,10.0,East,4.6,-,N/A,,Overcast,90,2014-01-28 01:15:00
6:35 PM,50.9,22.1,32,29.99,10.0,SE,6.9,-,N/A,,Mostly Cloudy,130,2014-01-28 01:35:00
6:55 PM,50.0,22.6,34,29.99,10.0,SSE,6.9,-,N/A,,Clear,150,2014-01-28 01:55:00
7:15 PM,48.4,22.3,36,30.00,10.0,SE,8.1,-,N/A,,Clear,140,2014-01-28 02:15:00
7:35 PM,48.6,22.5,36,30.00,10.0,SSE,9.2,-,N/A,,Clear,160,2014-01-28 02:35:00
7:55 PM,48.0,22.3,36,30.00,10.0,South,8.1,-,N/A,,Scattered Clouds,170,2014-01-28 02:55:00
8:15 PM,48.4,23.0,37,30.00,10.0,South,8.1,-,N/A,,Mostly Cloudy,180,2014-01-28 03:15:00
8:35 PM,47.7,23.4,38,30.01,10.0,South,8.1,-,N/A,,Scattered Clouds,190,2014-01-28 03:35:00
8:55 PM,46.4,23.9,41,30.01,10.0,South,6.9,-,N/A,,Clear,190,2014-01-28 03:55:00
9:15 PM,47.3,24.8,41,30.01,10.0,South,9.2,-,N/A,,Clear,190,2014-01-28 04:15:00
9:35 PM,46.9,25.5,43,30.00,10.0,South,8.1,-,N/A,,Clear,190,2014-01-28 04:35:00
9:55 PM,46.9,26.6,45,30.01,10.0,SSW,6.9,-,N/A,,Clear,200,2014-01-28 04:55:00
10:15 PM,46.4,27.7,48,30.01,10.0,SSW,8.1,-,N/A,,Clear,200,2014-01-28 05:15:00
10:35 PM,45.3,27.9,51,30.02,10.0,SW,4.6,-,N/A,,Clear,220,2014-01-28 05:35:00
10:55 PM,43.0,27.5,54,30.02,10.0,SSW,6.9,-,N/A,,Clear,210,2014-01-28 05:55:00
11:15 PM,42.6,27.7,56,30.02,10.0,Calm,Calm,-,N/A,,Clear,0,2014-01-28 06:15:00
11:35 PM,42.6,27.9,56,30.02,10.0,South,3.5,-,N/A,,Clear,190,2014-01-28 06:35:00
11:55 PM,39.6,27.1,61,30.02,10.0,SW,4.6,-,N/A,,Clear,230,2014-01-28 06:55:00